Date String (YYYY-MM-DD hh:mm:ss) UTC,Instrument flags,absolute air pressure of the measurement (hPa),sample flow rate (lpm),inlet stack bypass flow (lpm),air temperature of the measurement (°C),ambient temperature measured by the external sensor (°C),aerosol sample conditioner tube jacket temperature (°C),OPC LED temperature (°C),internal box temperature (°C),relative humidity of the measurement (%),span deviation,mass concentration of particles derived from Lorenz-Mie calculation of OPC scattering (μg/m³),mass concentration of particles derived from Lorenz-Mie calculation of OPC scattering (μg/m³),mass concentration of particles derived from Lorenz-Mie calculation of OPC scattering (μg/m³)
DateTimeUTC,F1_M11,P_M11,Q1_M11,Q2_M11,T1_M11,T2_M11,T3_M11,T4_M11,T5_M11,U1_M11,ZSPAN_M11,X0_M11,X2_M11,X1_M11
2024-04-20 17:00:00,SystemResetWarning,0835.1,5.00,000.00,020.1,019.6,000.0,028.5,021.9,021.7,0000.0,0006.36,0005.23,0005.12
2024-04-20 17:01:00,SystemResetWarning,0835.0,5.00,000.00,020.1,019.6,000.0,028.5,021.9,021.7,0000.0,0006.31,0005.22,0005.11
2024-04-20 17:02:00,SystemResetWarning,0835.0,5.01,000.00,020.1,019.6,000.0,028.5,021.9,021.4,0000.0,0006.32,0005.20,0005.09
2024-04-20 17:03:00,SystemResetWarning,0835.0,5.00,000.00,020.1,019.6,000.0,028.5,021.9,021.4,0000.0,0006.36,0005.20,0005.09
2024-04-20 17:04:00,SystemResetWarning,0835.0,5.00,000.00,020.1,019.7,000.0,028.5,021.9,021.4,0000.0,0006.33,0005.20,0005.08
2024-04-20 17:05:00,SystemResetWarning,0835.1,5.00,000.00,020.1,019.7,000.0,028.5,021.9,021.6,0000.0,0006.30,0005.18,0005.07
2024-04-20 17:06:00,SystemResetWarning,0835.1,5.01,000.00,020.2,019.7,000.0,028.5,022.0,021.6,0000.0,0006.21,0005.16,0005.06
2024-04-20 17:07:00,SystemResetWarning,0835.1,5.00,000.00,020.2,019.7,000.0,028.5,022.0,021.3,0000.0,0006.13,0005.15,0005.05
2024-04-20 17:08:00,SystemResetWarning,0835.1,5.00,000.00,020.2,019.7,000.0,028.5,022.0,020.8,0000.0,0006.08,0005.13,0005.04
2024-04-20 17:09:00,SystemResetWarning,0835.1,5.00,000.00,020.2,019.7,000.0,028.6,022.0,020.9,0000.0,0006.09,0005.13,0005.05
2024-04-20 17:10:00,SystemResetWarning,0835.0,5.00,000.00,020.2,019.7,000.0,028.6,022.0,021.0,0000.0,0006.16,0005.14,0005.05
2024-04-20 17:11:00,SystemResetWarning,0835.0,5.00,000.00,020.2,019.7,000.0,028.6,022.0,021.0,0000.0,0006.19,0005.15,0005.05
2024-04-20 17:12:00,SystemResetWarning,0835.0,5.00,000.00,020.2,019.7,000.0,028.6,022.0,021.1,0000.0,0006.23,0005.16,0005.06
2024-04-20 17:13:00,SystemResetWarning,0835.0,4.99,000.00,020.2,019.7,000.0,028.6,022.0,021.3,0000.0,0006.20,0005.16,0005.08
2024-04-20 17:14:00,SystemResetWarning,0835.0,5.00,000.00,020.2,019.7,000.0,028.6,022.0,021.1,0000.0,0006.12,0005.15,0005.08
2024-04-20 17:15:00,SystemResetWarning,0835.0,5.00,000.00,020.2,019.7,000.0,028.6,022.0,020.9,0000.0,0006.21,0005.16,0005.09
2024-04-20 17:16:00,SystemResetWarning,0835.0,5.01,000.00,020.2,019.7,000.0,028.6,022.0,020.9,0000.0,0006.25,0005.18,0005.11
2024-04-20 17:17:00,SystemResetWarning,0835.0,5.00,000.00,020.2,019.7,000.0,028.6,022.0,021.0,0000.0,0006.27,0005.20,0005.13
2024-04-20 17:18:00,SystemResetWarning,0835.0,4.99,000.00,020.2,019.8,000.0,028.6,022.0,020.9,0000.0,0006.28,0005.21,0005.13
2024-04-20 17:19:00,SystemResetWarning,0835.0,5.00,000.00,020.2,019.8,000.0,028.6,022.0,020.9,0000.0,0006.32,0005.22,0005.15
2024-04-20 17:20:00,SystemResetWarning,0835.0,4.99,000.00,020.3,019.8,000.0,028.6,022.1,020.9,0000.0,0006.33,0005.23,0005.16
2024-04-20 17:21:00,SystemResetWarning,0835.0,5.01,000.00,020.3,019.8,000.0,028.6,022.1,021.0,0000.0,0006.41,0005.25,0005.17
2024-04-20 17:22:00,SystemResetWarning,0835.0,5.01,000.00,020.3,019.8,000.0,028.7,022.1,021.1,0000.0,0006.88,0005.26,0005.18
2024-04-20 17:23:00,SystemResetWarning,0835.0,5.00,000.00,020.3,019.8,000.0,028.7,022.1,021.1,0000.0,0006.88,0005.26,0005.19
2024-04-20 17:24:00,SystemResetWarning,0835.0,5.01,000.00,020.3,019.8,000.0,028.7,022.1,021.2,0000.0,0006.90,0005.27,0005.19
2024-04-20 17:25:00,SystemResetWarning,0835.0,5.00,000.00,020.3,019.8,000.0,028.7,022.1,021.3,0000.0,0006.94,0005.29,0005.20
2024-04-20 17:26:00,SystemResetWarning,0835.0,4.99,000.00,020.3,019.8,000.0,028.7,022.1,021.2,0000.0,0006.86,0005.29,0005.22
2024-04-20 17:27:00,SystemResetWarning,0835.0,5.00,000.00,020.3,019.8,000.0,028.7,022.1,021.2,0000.0,0006.89,0005.29,0005.22
2024-04-20 17:28:00,SystemResetWarning,0835.0,5.00,000.00,020.3,019.8,000.0,028.7,022.1,021.2,0000.0,0006.96,0005.29,0005.21
2024-04-20 17:29:00,SystemResetWarning,0834.9,5.00,000.00,020.3,019.9,000.0,028.7,022.1,021.1,0000.0,0006.98,0005.30,0005.22
2024-04-20 17:30:00,SystemResetWarning,0834.9,5.00,000.00,020.3,019.9,000.0,028.7,022.1,021.0,0000.0,0006.99,0005.30,0005.22
2024-04-20 17:31:00,SystemResetWarning,0834.9,5.01,000.00,020.3,019.9,000.0,028.7,022.2,020.9,0000.0,0007.03,0005.31,0005.23
2024-04-20 17:32:00,SystemResetWarning,0835.0,5.01,000.00,020.4,019.9,000.0,028.7,022.2,021.0,0000.0,0006.94,0005.30,0005.23
2024-04-20 17:33:00,SystemResetWarning,0834.9,4.99,000.00,020.4,019.9,000.0,028.7,022.2,020.8,0000.0,0006.43,0005.30,0005.23
2024-04-20 17:34:00,SystemResetWarning,0834.9,4.99,000.00,020.4,019.9,000.0,028.8,022.2,020.8,0000.0,0006.46,0005.32,0005.24
2024-04-20 17:35:00,SystemResetWarning,0835.4,4.99,000.00,020.4,019.9,000.0,028.8,022.2,020.9,0000.0,0006.47,0005.32,0005.25
2024-04-20 17:36:00,SystemResetWarning,0835.3,5.01,000.00,020.4,019.9,000.0,028.8,022.2,020.9,0000.0,0006.45,0005.32,0005.26
2024-04-20 17:37:00,SystemResetWarning,0835.3,5.01,000.00,020.4,019.9,000.0,028.8,022.2,021.0,0000.0,0006.54,0005.35,0005.28
2024-04-20 17:38:00,SystemResetWarning,0835.4,5.00,000.00,020.4,019.9,000.0,028.8,022.2,020.9,0000.0,0006.54,0005.39,0005.31
2024-04-20 17:39:00,SystemResetWarning,0835.3,4.99,000.00,020.4,019.9,000.0,028.8,022.2,021.0,0000.0,0006.59,0005.42,0005.34
2024-04-20 17:40:00,SystemResetWarning,0835.4,4.99,000.00,020.4,019.9,000.0,028.8,022.2,021.1,0000.0,0006.65,0005.44,0005.36
2024-04-20 17:41:00,SystemResetWarning,0835.3,5.00,000.00,020.4,019.9,000.0,028.8,022.2,021.1,0000.0,0006.68,0005.46,0005.37
2024-04-20 17:42:00,SystemResetWarning,0835.2,5.00,000.00,020.4,019.9,000.0,028.8,022.2,021.1,0000.0,0006.83,0005.47,0005.38
2024-04-20 17:43:00,SystemResetWarning,0834.8,5.02,000.00,020.4,019.9,000.0,028.8,022.2,021.1,0000.0,0007.04,0005.50,0005.40
2024-04-20 17:44:00,SystemResetWarning,0834.7,5.00,000.00,020.4,019.9,000.0,028.8,022.2,021.0,0000.0,0007.06,0005.52,0005.42
2024-04-20 17:45:00,SystemResetWarning,0834.7,4.99,000.00,020.5,019.9,000.0,028.8,022.2,020.9,0000.0,0007.04,0005.52,0005.43
2024-04-20 17:46:00,SystemResetWarning,0834.7,5.00,000.00,020.5,019.9,000.0,028.8,022.2,020.9,0000.0,0007.11,0005.56,0005.45
2024-04-20 17:47:00,SystemResetWarning,0834.8,5.00,000.00,020.5,019.9,000.0,028.9,022.3,021.0,0000.0,0007.25,0005.60,0005.47
2024-04-20 17:48:00,SystemResetWarning,0835.1,5.00,000.00,020.5,019.9,000.0,028.9,022.3,020.8,0000.0,0007.24,0005.60,0005.48
2024-04-20 17:49:00,SystemResetWarning,0835.1,5.01,000.00,020.5,019.9,000.0,028.9,022.3,020.8,0000.0,0007.24,0005.60,0005.48
2024-04-20 17:50:00,SystemResetWarning,0835.2,5.01,000.00,020.5,020.0,000.0,028.9,022.3,020.9,0000.0,0007.14,0005.59,0005.49
2024-04-20 17:51:00,SystemResetWarning,0835.0,5.00,000.00,020.5,020.0,000.0,028.9,022.3,021.0,0000.0,0007.13,0005.59,0005.50
2024-04-20 17:52:00,SystemResetWarning,0835.2,4.99,000.00,020.5,020.0,000.0,028.9,022.3,021.2,0000.0,0007.12,0005.60,0005.51
2024-04-20 17:53:00,SystemResetWarning,0835.2,5.00,000.00,020.5,020.0,000.0,028.9,022.3,021.1,0000.0,0007.01,0005.60,0005.51
2024-04-20 17:54:00,SystemResetWarning,0835.1,5.01,000.00,020.5,020.0,000.0,028.9,022.3,020.9,0000.0,0006.80,0005.58,0005.51
2024-04-20 17:55:00,SystemResetWarning,0834.8,5.00,000.00,020.5,020.0,000.0,028.9,022.3,021.2,0000.0,0006.90,0005.58,0005.51
2024-04-20 17:56:00,SystemResetWarning,0834.8,4.99,000.00,020.5,020.0,000.0,028.9,022.4,021.2,0000.0,0006.95,0005.58,0005.50
2024-04-20 17:57:00,SystemResetWarning,0834.7,4.99,000.00,020.6,020.0,000.0,028.9,022.4,021.2,0000.0,0006.84,0005.53,0005.47
2024-04-20 17:58:00,SystemResetWarning,0834.9,5.00,000.00,020.6,020.0,000.0,028.9,022.4,020.9,0000.0,0006.72,0005.50,0005.45
2024-04-20 17:59:00,SystemResetWarning,0834.7,5.01,000.00,020.6,020.1,000.0,028.9,022.4,020.9,0000.0,0006.67,0005.47,0005.43
